owner,sensor,date,latitude,longitude,vertical_datum,mass_concentration_of_oxygen_in_sea_water,qcFlag 
DISL,ioos:station:DISL:MHPA:1,2009-05-01T00:00:00Z,30.6671,-87.9365,4.652,9.42,1111122 
DISL,ioos:station:DISL:MHPA:1,2009-05-01T00:30:00Z,30.6671,-87.9365,4.549,9.33,1111122 
DISL,ioos:station:DISL:MHPA:1,2009-05-01T01:00:00Z,30.6671,-87.9365,4.436,9.11,1111122 
DISL,ioos:station:DISL:MHPA:1,2009-05-01T01:30:00Z,30.6671,-87.9365,4.281,9.08,1111122 
DISL,ioos:station:DISL:MHPA:1,2009-05-01T02:00:00Z,30.6671,-87.9365,4.125,9.13,1111122 
DISL,ioos:station:DISL:MHPA:1,2009-05-01T02:30:00Z,30.6671,-87.9365,3.99,8.99,1111122 
DISL,ioos:station:DISL:MHPA:1,2009-05-01T03:00:00Z,30.6671,-87.9365,3.887,8.83,1111122 
DISL,ioos:station:DISL:MHPA:1,2009-05-01T03:30:00Z,30.6671,-87.9365,3.802,8.74,1111122 
DISL,ioos:station:DISL:MHPA:1,2009-05-01T04:00:00Z,30.6671,-87.9365,3.689,8.51,1111122 
DISL,ioos:station:DISL:MHPA:1,2009-05-01T04:30:00Z,30.6671,-87.9365,3.569,8.49,1111122 
DISL,ioos:station:DISL:MHPA:1,2009-05-01T05:00:00Z,30.6671,-87.9365,3.472,8.39,1111122 
DISL,ioos:station:DISL:MHPA:1,2009-05-01T05:30:00Z,30.6671,-87.9365,3.404,8.32,1111122 
DISL,ioos:station:DISL:MHPA:1,2009-05-01T06:00:00Z,30.6671,-87.9365,3.328,8.06,1111122 
DISL,ioos:station:DISL:MHPA:1,2009-05-01T06:30:00Z,30.6671,-87.9365,3.271,7.88,1111122 
DISL,ioos:station:DISL:MHPA:1,2009-05-01T07:00:00Z,30.6671,-87.9365,3.227,7.63,1111122 
DISL,ioos:station:DISL:MHPA:1,2009-05-01T07:30:00Z,30.6671,-87.9365,3.197,7.29,1111122 
DISL,ioos:station:DISL:MHPA:1,2009-05-01T08:00:00Z,30.6671,-87.9365,3.167,7.34,1111122 
DISL,ioos:station:DISL:MHPA:1,2009-05-01T08:30:00Z,30.6671,-87.9365,3.169,7.47,1111122 
DISL,ioos:station:DISL:MHPA:1,2009-05-01T09:00:00Z,30.6671,-87.9365,3.166,7.8,1111122 
DISL,ioos:station:DISL:MHPA:1,2009-05-01T09:30:00Z,30.6671,-87.9365,3.175,7.6,1111122 
DISL,ioos:station:DISL:MHPA:1,2009-05-01T10:00:00Z,30.6671,-87.9365,3.183,7.64,1111122 
DISL,ioos:station:DISL:MHPA:1,2009-05-01T10:30:00Z,30.6671,-87.9365,3.179,7.66,1111122 
DISL,ioos:station:DISL:MHPA:1,2009-05-01T11:00:00Z,30.6671,-87.9365,3.213,7.53,1111122 
DISL,ioos:station:DISL:MHPA:1,2009-05-01T11:30:00Z,30.6671,-87.9365,3.256,7.47,1111122 
DISL,ioos:station:DISL:MHPA:1,2009-05-01T12:00:00Z,30.6671,-87.9365,3.44,7.57,1111122 
DISL,ioos:station:DISL:MHPA:1,2009-05-01T12:30:00Z,30.6671,-87.9365,3.453,7.56,1111122 
DISL,ioos:station:DISL:MHPA:1,2009-05-01T13:00:00Z,30.6671,-87.9365,3.521,7.51,1111122 
DISL,ioos:station:DISL:MHPA:1,2009-05-01T13:30:00Z,30.6671,-87.9365,3.569,7.4,1111122 
DISL,ioos:station:DISL:MHPA:1,2009-05-01T14:00:00Z,30.6671,-87.9365,3.686,7.41,1111122 
DISL,ioos:station:DISL:MHPA:1,2009-05-01T14:30:00Z,30.6671,-87.9365,3.76,7.97,1111122 
DISL,ioos:station:DISL:MHPA:1,2009-05-01T15:00:00Z,30.6671,-87.9365,3.804,8.37,1111122 
DISL,ioos:station:DISL:MHPA:1,2009-05-01T15:30:00Z,30.6671,-87.9365,3.959,8.76,1111122 
DISL,ioos:station:DISL:MHPA:1,2009-05-01T16:00:00Z,30.6671,-87.9365,4.021,8.91,1111122 
DISL,ioos:station:DISL:MHPA:1,2009-05-01T16:30:00Z,30.6671,-87.9365,4.069,9.29,1111122 
DISL,ioos:station:DISL:MHPA:1,2009-05-01T17:00:00Z,30.6671,-87.9365,4.169,9.42,1111122 
DISL,ioos:station:DISL:MHPA:1,2009-05-01T17:30:00Z,30.6671,-87.9365,4.264,9.62,1111122 
DISL,ioos:station:DISL:MHPA:1,2009-05-01T18:00:00Z,30.6671,-87.9365,4.336,9.82,1111122 
DISL,ioos:station:DISL:MHPA:1,2009-05-01T18:30:00Z,30.6671,-87.9365,4.436,10.04,1111122 
DISL,ioos:station:DISL:MHPA:1,2009-05-01T19:00:00Z,30.6671,-87.9365,4.558,9.84,1111122 
DISL,ioos:station:DISL:MHPA:1,2009-05-01T19:30:00Z,30.6671,-87.9365,4.665,9.77,1111122 
DISL,ioos:station:DISL:MHPA:1,2009-05-01T20:00:00Z,30.6671,-87.9365,4.673,9.75,1111122 
DISL,ioos:station:DISL:MHPA:1,2009-05-01T20:30:00Z,30.6671,-87.9365,4.764,9.65,1111122 
DISL,ioos:station:DISL:MHPA:1,2009-05-01T21:00:00Z,30.6671,-87.9365,4.798,9.69,1111122 
DISL,ioos:station:DISL:MHPA:1,2009-05-01T21:30:00Z,30.6671,-87.9365,4.805,9.71,1111122 
DISL,ioos:station:DISL:MHPA:1,2009-05-01T22:00:00Z,30.6671,-87.9365,4.786,9.64,1111122 
DISL,ioos:station:DISL:MHPA:1,2009-05-01T22:30:00Z,30.6671,-87.9365,4.758,9.5,1111122 
DISL,ioos:station:DISL:MHPA:1,2009-05-01T23:00:00Z,30.6671,-87.9365,4.755,9.53,1111122 
DISL,ioos:station:DISL:MHPA:1,2009-05-01T23:30:00Z,30.6671,-87.9365,4.726,9.41,1111122 
DISL,ioos:station:DISL:MHPA:1,2009-05-02T00:00:00Z,30.6671,-87.9365,4.677,9.31,1111122 
DISL,ioos:station:DISL:MHPA:1,2009-05-02T00:30:00Z,30.6671,-87.9365,4.613,9.04,1111122 
DISL,ioos:station:DISL:MHPA:1,2009-05-02T01:00:00Z,30.6671,-87.9365,4.566,8.95,1111122 
DISL,ioos:station:DISL:MHPA:1,2009-05-02T01:30:00Z,30.6671,-87.9365,4.509,8.78,1111122 
DISL,ioos:station:DISL:MHPA:1,2009-05-02T02:00:00Z,30.6671,-87.9365,4.419,8.65,1111122 
DISL,ioos:station:DISL:MHPA:1,2009-05-02T02:30:00Z,30.6671,-87.9365,4.362,8.51,1111122 
DISL,ioos:station:DISL:MHPA:1,2009-05-02T03:00:00Z,30.6671,-87.9365,4.232,8.43,1111122 
DISL,ioos:station:DISL:MHPA:1,2009-05-02T03:30:00Z,30.6671,-87.9365,4.105,8.34,1111122 
DISL,ioos:station:DISL:MHPA:1,2009-05-02T04:00:00Z,30.6671,-87.9365,3.967,8.25,1111122 
DISL,ioos:station:DISL:MHPA:1,2009-05-02T04:30:00Z,30.6671,-87.9365,3.873,7.99,1111122 
DISL,ioos:station:DISL:MHPA:1,2009-05-02T05:00:00Z,30.6671,-87.9365,3.78,8.01,1111122 
DISL,ioos:station:DISL:MHPA:1,2009-05-02T05:30:00Z,30.6671,-87.9365,3.692,7.97,1111122 
DISL,ioos:station:DISL:MHPA:1,2009-05-02T06:00:00Z,30.6671,-87.9365,3.606,8.0,1111122 
DISL,ioos:station:DISL:MHPA:1,2009-05-02T06:30:00Z,30.6671,-87.9365,3.474,7.72,1111122 
DISL,ioos:station:DISL:MHPA:1,2009-05-02T07:00:00Z,30.6671,-87.9365,3.377,7.64,1111122 
DISL,ioos:station:DISL:MHPA:1,2009-05-02T07:30:00Z,30.6671,-87.9365,3.337,7.28,1111122 
DISL,ioos:station:DISL:MHPA:1,2009-05-02T08:00:00Z,30.6671,-87.9365,3.294,7.15,1111122 
DISL,ioos:station:DISL:MHPA:1,2009-05-02T08:30:00Z,30.6671,-87.9365,3.238,7.23,1111122 
DISL,ioos:station:DISL:MHPA:1,2009-05-02T09:00:00Z,30.6671,-87.9365,3.209,7.47,1111122 
DISL,ioos:station:DISL:MHPA:1,2009-05-02T09:30:00Z,30.6671,-87.9365,3.18,7.52,1111122 
DISL,ioos:station:DISL:MHPA:1,2009-05-02T10:00:00Z,30.6671,-87.9365,3.121,7.36,1111122 
DISL,ioos:station:DISL:MHPA:1,2009-05-02T10:30:00Z,30.6671,-87.9365,3.09,7.21,1111122 
DISL,ioos:station:DISL:MHPA:1,2009-05-02T11:00:00Z,30.6671,-87.9365,3.177,6.89,1111122 
DISL,ioos:station:DISL:MHPA:1,2009-05-02T11:30:00Z,30.6671,-87.9365,3.25,7.17,1111122 
DISL,ioos:station:DISL:MHPA:1,2009-05-02T12:00:00Z,30.6671,-87.9365,3.32,7.42,1111122 
DISL,ioos:station:DISL:MHPA:1,2009-05-02T12:30:00Z,30.6671,-87.9365,3.4,7.12,1111122 
DISL,ioos:station:DISL:MHPA:1,2009-05-02T13:00:00Z,30.6671,-87.9365,3.461,7.04,1111122 
DISL,ioos:station:DISL:MHPA:1,2009-05-02T13:30:00Z,30.6671,-87.9365,3.588,7.18,1111122 
DISL,ioos:station:DISL:MHPA:1,2009-05-02T14:00:00Z,30.6671,-87.9365,3.695,7.18,1111122 
DISL,ioos:station:DISL:MHPA:1,2009-05-02T14:30:00Z,30.6671,-87.9365,3.792,7.18,1111122 
DISL,ioos:station:DISL:MHPA:1,2009-05-02T15:00:00Z,30.6671,-87.9365,3.905,7.47,1111122 
DISL,ioos:station:DISL:MHPA:1,2009-05-02T15:30:00Z,30.6671,-87.9365,4.005,7.62,1111122 
DISL,ioos:station:DISL:MHPA:1,2009-05-02T16:00:00Z,30.6671,-87.9365,4.088,7.75,1111122 
DISL,ioos:station:DISL:MHPA:1,2009-05-02T16:30:00Z,30.6671,-87.9365,4.119,8.18,1111122 
DISL,ioos:station:DISL:MHPA:1,2009-05-02T17:00:00Z,30.6671,-87.9365,4.231,8.37,1111122 
DISL,ioos:station:DISL:MHPA:1,2009-05-02T17:30:00Z,30.6671,-87.9365,4.28,8.55,1111122 
DISL,ioos:station:DISL:MHPA:1,2009-05-02T18:00:00Z,30.6671,-87.9365,4.356,8.64,1111122 
DISL,ioos:station:DISL:MHPA:1,2009-05-02T18:30:00Z,30.6671,-87.9365,4.409,8.64,1111122 
DISL,ioos:station:DISL:MHPA:1,2009-05-02T19:00:00Z,30.6671,-87.9365,4.444,8.85,1111122 
DISL,ioos:station:DISL:MHPA:1,2009-05-02T19:30:00Z,30.6671,-87.9365,4.52,8.95,1111122 
DISL,ioos:station:DISL:MHPA:1,2009-05-02T20:00:00Z,30.6671,-87.9365,4.567,8.92,1111122 
DISL,ioos:station:DISL:MHPA:1,2009-05-02T20:30:00Z,30.6671,-87.9365,4.604,8.93,1111122 
DISL,ioos:station:DISL:MHPA:1,2009-05-02T21:00:00Z,30.6671,-87.9365,4.652,8.96,1111122 
DISL,ioos:station:DISL:MHPA:1,2009-05-02T21:30:00Z,30.6671,-87.9365,4.69,9.04,1111122 
DISL,ioos:station:DISL:MHPA:1,2009-05-02T22:00:00Z,30.6671,-87.9365,4.724,9.14,1111122 
DISL,ioos:station:DISL:MHPA:1,2009-05-02T22:30:00Z,30.6671,-87.9365,4.753,9.22,1111122 
DISL,ioos:station:DISL:MHPA:1,2009-05-02T23:00:00Z,30.6671,-87.9365,4.785,9.08,1111122 
DISL,ioos:station:DISL:MHPA:1,2009-05-02T23:30:00Z,30.6671,-87.9365,4.781,8.9,1111122 
DISL,ioos:station:DISL:MHPA:1,2009-05-03T00:00:00Z,30.6671,-87.9365,4.761,8.75,1111122 
DISL,ioos:station:DISL:MHPA:1,2009-05-03T00:30:00Z,30.6671,-87.9365,4.764,8.56,1111122 
DISL,ioos:station:DISL:MHPA:1,2009-05-03T01:00:00Z,30.6671,-87.9365,4.747,8.41,1111122 
DISL,ioos:station:DISL:MHPA:1,2009-05-03T01:30:00Z,30.6671,-87.9365,4.727,8.21,1111122 
DISL,ioos:station:DISL:MHPA:1,2009-05-03T02:00:00Z,30.6671,-87.9365,4.718,8.08,1111122 
DISL,ioos:station:DISL:MHPA:1,2009-05-03T02:30:00Z,30.6671,-87.9365,4.667,8.21,1111122 
DISL,ioos:station:DISL:MHPA:1,2009-05-03T03:00:00Z,30.6671,-87.9365,4.637,8.1,1111122 
DISL,ioos:station:DISL:MHPA:1,2009-05-03T03:30:00Z,30.6671,-87.9365,4.541,8.06,1111122 
DISL,ioos:station:DISL:MHPA:1,2009-05-03T04:00:00Z,30.6671,-87.9365,4.479,7.96,1111122 
DISL,ioos:station:DISL:MHPA:1,2009-05-03T04:30:00Z,30.6671,-87.9365,4.432,8.0,1111122 
DISL,ioos:station:DISL:MHPA:1,2009-05-03T05:00:00Z,30.6671,-87.9365,4.396,7.94,1111122 
DISL,ioos:station:DISL:MHPA:1,2009-05-03T05:30:00Z,30.6671,-87.9365,4.351,7.87,1111122 
DISL,ioos:station:DISL:MHPA:1,2009-05-03T06:00:00Z,30.6671,-87.9365,4.303,7.74,1111122 
DISL,ioos:station:DISL:MHPA:1,2009-05-03T06:30:00Z,30.6671,-87.9365,4.271,7.69,1111122 
DISL,ioos:station:DISL:MHPA:1,2009-05-03T07:00:00Z,30.6671,-87.9365,4.212,7.62,1111122 
DISL,ioos:station:DISL:MHPA:1,2009-05-03T07:30:00Z,30.6671,-87.9365,4.092,7.43,1111122 
DISL,ioos:station:DISL:MHPA:1,2009-05-03T08:00:00Z,30.6671,-87.9365,4.046,7.4,1111122 
DISL,ioos:station:DISL:MHPA:1,2009-05-03T08:30:00Z,30.6671,-87.9365,3.994,7.34,1111122 
DISL,ioos:station:DISL:MHPA:1,2009-05-03T09:00:00Z,30.6671,-87.9365,3.936,7.26,1111122 
DISL,ioos:station:DISL:MHPA:1,2009-05-03T09:30:00Z,30.6671,-87.9365,3.905,7.23,1111122 
DISL,ioos:station:DISL:MHPA:1,2009-05-03T10:00:00Z,30.6671,-87.9365,3.944,7.18,1111122 
DISL,ioos:station:DISL:MHPA:1,2009-05-03T10:30:00Z,30.6671,-87.9365,3.989,7.14,1111122 
DISL,ioos:station:DISL:MHPA:1,2009-05-03T11:00:00Z,30.6671,-87.9365,4.017,7.15,1111122 
DISL,ioos:station:DISL:MHPA:1,2009-05-03T11:30:00Z,30.6671,-87.9365,4.046,7.22,1111122 
DISL,ioos:station:DISL:MHPA:1,2009-05-03T12:00:00Z,30.6671,-87.9365,4.117,7.21,1111122 
DISL,ioos:station:DISL:MHPA:1,2009-05-03T12:30:00Z,30.6671,-87.9365,4.171,7.24,1111122 
DISL,ioos:station:DISL:MHPA:1,2009-05-03T13:00:00Z,30.6671,-87.9365,4.221,7.21,1111122 
DISL,ioos:station:DISL:MHPA:1,2009-05-03T13:30:00Z,30.6671,-87.9365,4.306,7.22,1111122 
DISL,ioos:station:DISL:MHPA:1,2009-05-03T14:00:00Z,30.6671,-87.9365,4.324,7.16,1111122 
DISL,ioos:station:DISL:MHPA:1,2009-05-03T14:30:00Z,30.6671,-87.9365,4.391,7.23,1111122 
DISL,ioos:station:DISL:MHPA:1,2009-05-03T15:00:00Z,30.6671,-87.9365,4.452,7.3,1111122 
DISL,ioos:station:DISL:MHPA:1,2009-05-03T15:30:00Z,30.6671,-87.9365,4.521,7.3,1111122 
DISL,ioos:station:DISL:MHPA:1,2009-05-03T16:00:00Z,30.6671,-87.9365,4.608,7.52,1111122 
DISL,ioos:station:DISL:MHPA:1,2009-05-03T16:30:00Z,30.6671,-87.9365,4.743,7.8,1111122 
DISL,ioos:station:DISL:MHPA:1,2009-05-03T17:00:00Z,30.6671,-87.9365,4.837,7.9,1111122 
DISL,ioos:station:DISL:MHPA:1,2009-05-03T17:30:00Z,30.6671,-87.9365,4.884,7.96,1111122 
DISL,ioos:station:DISL:MHPA:1,2009-05-03T18:00:00Z,30.6671,-87.9365,4.781,8.01,1111122 
DISL,ioos:station:DISL:MHPA:1,2009-05-03T18:30:00Z,30.6671,-87.9365,4.693,8.29,1111122 
DISL,ioos:station:DISL:MHPA:1,2009-05-03T19:00:00Z,30.6671,-87.9365,4.681,8.21,1111122 
DISL,ioos:station:DISL:MHPA:1,2009-05-03T19:30:00Z,30.6671,-87.9365,4.627,8.37,1111122 
DISL,ioos:station:DISL:MHPA:1,2009-05-03T20:00:00Z,30.6671,-87.9365,4.557,8.28,1111122 
DISL,ioos:station:DISL:MHPA:1,2009-05-03T20:30:00Z,30.6671,-87.9365,4.516,8.27,1111122 
DISL,ioos:station:DISL:MHPA:1,2009-05-03T21:00:00Z,30.6671,-87.9365,4.471,8.0,1111122 
DISL,ioos:station:DISL:MHPA:1,2009-05-03T21:30:00Z,30.6671,-87.9365,4.407,8.16,1111122 
DISL,ioos:station:DISL:MHPA:1,2009-05-03T22:00:00Z,30.6671,-87.9365,4.215,8.22,1111122 
DISL,ioos:station:DISL:MHPA:1,2009-05-03T22:30:00Z,30.6671,-87.9365,4.116,8.39,1111122 
DISL,ioos:station:DISL:MHPA:1,2009-05-03T23:00:00Z,30.6671,-87.9365,3.915,8.4,1111122 
DISL,ioos:station:DISL:MHPA:1,2009-05-03T23:30:00Z,30.6671,-87.9365,3.829,8.01,1111122 
DISL,ioos:station:DISL:MHPA:1,2009-05-04T00:00:00Z,30.6671,-87.9365,3.787,7.62,1111122 
DISL,ioos:station:DISL:MHPA:1,2009-05-04T00:30:00Z,30.6671,-87.9365,3.664,7.74,1111122 
DISL,ioos:station:DISL:MHPA:1,2009-05-04T01:00:00Z,30.6671,-87.9365,3.887,7.65,1111122 
DISL,ioos:station:DISL:MHPA:1,2009-05-04T01:30:00Z,30.6671,-87.9365,4.049,7.6,1111122 
DISL,ioos:station:DISL:MHPA:1,2009-05-04T02:00:00Z,30.6671,-87.9365,3.981,7.51,1111122 
DISL,ioos:station:DISL:MHPA:1,2009-05-04T02:30:00Z,30.6671,-87.9365,4.087,7.66,1111122 
DISL,ioos:station:DISL:MHPA:1,2009-05-04T03:00:00Z,30.6671,-87.9365,3.909,7.69,1111122 
DISL,ioos:station:DISL:MHPA:1,2009-05-04T03:30:00Z,30.6671,-87.9365,3.958,7.54,1111122 
DISL,ioos:station:DISL:MHPA:1,2009-05-04T04:00:00Z,30.6671,-87.9365,3.904,7.28,1111122 
DISL,ioos:station:DISL:MHPA:1,2009-05-04T04:30:00Z,30.6671,-87.9365,4.283,7.51,1111122 
DISL,ioos:station:DISL:MHPA:1,2009-05-04T05:00:00Z,30.6671,-87.9365,4.419,7.45,1111122 
DISL,ioos:station:DISL:MHPA:1,2009-05-04T05:30:00Z,30.6671,-87.9365,4.463,7.44,1111122 
DISL,ioos:station:DISL:MHPA:1,2009-05-04T06:00:00Z,30.6671,-87.9365,4.493,7.45,1111122 
DISL,ioos:station:DISL:MHPA:1,2009-05-04T06:30:00Z,30.6671,-87.9365,4.551,7.53,1111122 
DISL,ioos:station:DISL:MHPA:1,2009-05-04T07:00:00Z,30.6671,-87.9365,4.668,7.5,1111122 
DISL,ioos:station:DISL:MHPA:1,2009-05-04T07:30:00Z,30.6671,-87.9365,4.757,7.49,1111122 
DISL,ioos:station:DISL:MHPA:1,2009-05-04T08:00:00Z,30.6671,-87.9365,4.842,7.43,1111122 
DISL,ioos:station:DISL:MHPA:1,2009-05-04T08:30:00Z,30.6671,-87.9365,4.851,7.42,1111122 
DISL,ioos:station:DISL:MHPA:1,2009-05-04T09:00:00Z,30.6671,-87.9365,4.923,7.43,1111122 
DISL,ioos:station:DISL:MHPA:1,2009-05-04T09:30:00Z,30.6671,-87.9365,4.98,7.44,1111122 
DISL,ioos:station:DISL:MHPA:1,2009-05-04T10:00:00Z,30.6671,-87.9365,4.859,7.39,1111122 
DISL,ioos:station:DISL:MHPA:1,2009-05-04T10:30:00Z,30.6671,-87.9365,4.925,7.38,1111122 
DISL,ioos:station:DISL:MHPA:1,2009-05-04T11:00:00Z,30.6671,-87.9365,4.941,7.41,1111122 
DISL,ioos:station:DISL:MHPA:1,2009-05-04T11:30:00Z,30.6671,-87.9365,4.983,7.43,1111122 
DISL,ioos:station:DISL:MHPA:1,2009-05-04T12:00:00Z,30.6671,-87.9365,4.947,7.45,1111122 
DISL,ioos:station:DISL:MHPA:1,2009-05-04T12:30:00Z,30.6671,-87.9365,4.893,7.42,1111122 
DISL,ioos:station:DISL:MHPA:1,2009-05-04T13:00:00Z,30.6671,-87.9365,4.989,7.45,1111122 
DISL,ioos:station:DISL:MHPA:1,2009-05-04T13:30:00Z,30.6671,-87.9365,5.036,7.44,1111122 
DISL,ioos:station:DISL:MHPA:1,2009-05-04T14:00:00Z,30.6671,-87.9365,4.918,7.43,1111122 
DISL,ioos:station:DISL:MHPA:1,2009-05-04T14:30:00Z,30.6671,-87.9365,4.966,7.37,1111122 
DISL,ioos:station:DISL:MHPA:1,2009-05-04T15:00:00Z,30.6671,-87.9365,4.837,7.29,1111122 
DISL,ioos:station:DISL:MHPA:1,2009-05-04T15:30:00Z,30.6671,-87.9365,4.944,7.27,1111122 
DISL,ioos:station:DISL:MHPA:1,2009-05-04T16:00:00Z,30.6671,-87.9365,4.955,7.33,1111122 
DISL,ioos:station:DISL:MHPA:1,2009-05-04T16:30:00Z,30.6671,-87.9365,5.058,7.45,1111122 
DISL,ioos:station:DISL:MHPA:1,2009-05-04T17:00:00Z,30.6671,-87.9365,4.905,7.38,1111122 
DISL,ioos:station:DISL:MHPA:1,2009-05-04T17:30:00Z,30.6671,-87.9365,4.485,7.12,1111122 
DISL,ioos:station:DISL:MHPA:1,2009-05-04T18:00:00Z,30.6671,-87.9365,4.61,7.11,1111122 
DISL,ioos:station:DISL:MHPA:1,2009-05-04T18:30:00Z,30.6671,-87.9365,4.262,7.32,1111122 
DISL,ioos:station:DISL:MHPA:1,2009-05-04T19:00:00Z,30.6671,-87.9365,3.918,7.27,1111122 
DISL,ioos:station:DISL:MHPA:1,2009-05-04T19:30:00Z,30.6671,-87.9365,3.913,7.19,1111122 
DISL,ioos:station:DISL:MHPA:1,2009-05-04T20:00:00Z,30.6671,-87.9365,3.931,7.43,1111122 
DISL,ioos:station:DISL:MHPA:1,2009-05-04T20:30:00Z,30.6671,-87.9365,4.069,7.65,1111122 
DISL,ioos:station:DISL:MHPA:1,2009-05-04T21:00:00Z,30.6671,-87.9365,4.059,7.8,1111122 
DISL,ioos:station:DISL:MHPA:1,2009-05-04T21:30:00Z,30.6671,-87.9365,4.235,8.25,1111122 
DISL,ioos:station:DISL:MHPA:1,2009-05-04T22:00:00Z,30.6671,-87.9365,4.149,7.93,1111122 
DISL,ioos:station:DISL:MHPA:1,2009-05-04T22:30:00Z,30.6671,-87.9365,4.081,7.88,1111122 
DISL,ioos:station:DISL:MHPA:1,2009-05-04T23:00:00Z,30.6671,-87.9365,4.105,8.18,1111122 
DISL,ioos:station:DISL:MHPA:1,2009-05-04T23:30:00Z,30.6671,-87.9365,3.957,8.29,1111122 
DISL,ioos:station:DISL:MHPA:1,2009-05-05T00:00:00Z,30.6671,-87.9365,3.778,8.08,1111122 
DISL,ioos:station:DISL:MHPA:1,2009-05-05T00:30:00Z,30.6671,-87.9365,3.811,7.94,1111122 
DISL,ioos:station:DISL:MHPA:1,2009-05-05T01:00:00Z,30.6671,-87.9365,3.844,7.96,1111122 
DISL,ioos:station:DISL:MHPA:1,2009-05-05T01:30:00Z,30.6671,-87.9365,3.824,7.81,1111122 
DISL,ioos:station:DISL:MHPA:1,2009-05-05T02:00:00Z,30.6671,-87.9365,3.788,7.72,1111122 
DISL,ioos:station:DISL:MHPA:1,2009-05-05T02:30:00Z,30.6671,-87.9365,3.843,7.65,1111122 
DISL,ioos:station:DISL:MHPA:1,2009-05-05T03:00:00Z,30.6671,-87.9365,3.82,7.53,1111122 
DISL,ioos:station:DISL:MHPA:1,2009-05-05T03:30:00Z,30.6671,-87.9365,3.894,7.56,1111122 
DISL,ioos:station:DISL:MHPA:1,2009-05-05T04:00:00Z,30.6671,-87.9365,3.97,7.5,1111122 
DISL,ioos:station:DISL:MHPA:1,2009-05-05T04:30:00Z,30.6671,-87.9365,4.002,7.47,1111122 
DISL,ioos:station:DISL:MHPA:1,2009-05-05T05:00:00Z,30.6671,-87.9365,4.107,7.49,1111122 
DISL,ioos:station:DISL:MHPA:1,2009-05-05T05:30:00Z,30.6671,-87.9365,4.098,7.37,1111122 
DISL,ioos:station:DISL:MHPA:1,2009-05-05T06:00:00Z,30.6671,-87.9365,4.095,7.25,1111122 
DISL,ioos:station:DISL:MHPA:1,2009-05-05T06:30:00Z,30.6671,-87.9365,4.137,7.19,1111122 
DISL,ioos:station:DISL:MHPA:1,2009-05-05T07:00:00Z,30.6671,-87.9365,4.159,7.14,1111122 
DISL,ioos:station:DISL:MHPA:1,2009-05-05T07:30:00Z,30.6671,-87.9365,4.168,7.12,1111122 
DISL,ioos:station:DISL:MHPA:1,2009-05-05T08:00:00Z,30.6671,-87.9365,4.102,7.13,1111122 
DISL,ioos:station:DISL:MHPA:1,2009-05-05T08:30:00Z,30.6671,-87.9365,4.182,7.17,1111122 
DISL,ioos:station:DISL:MHPA:1,2009-05-05T09:00:00Z,30.6671,-87.9365,4.108,7.14,1111122 
DISL,ioos:station:DISL:MHPA:1,2009-05-05T09:30:00Z,30.6671,-87.9365,4.066,7.07,1111122 
DISL,ioos:station:DISL:MHPA:1,2009-05-05T10:00:00Z,30.6671,-87.9365,4.144,7.07,1111122 
DISL,ioos:station:DISL:MHPA:1,2009-05-05T10:30:00Z,30.6671,-87.9365,4.088,7.03,1111122 
DISL,ioos:station:DISL:MHPA:1,2009-05-05T11:00:00Z,30.6671,-87.9365,4.078,7.01,1111122 
DISL,ioos:station:DISL:MHPA:1,2009-05-05T11:30:00Z,30.6671,-87.9365,4.122,7.01,1111122 
DISL,ioos:station:DISL:MHPA:1,2009-05-05T12:00:00Z,30.6671,-87.9365,4.14,6.92,1111122 
DISL,ioos:station:DISL:MHPA:1,2009-05-05T12:30:00Z,30.6671,-87.9365,4.167,6.89,1111122 
DISL,ioos:station:DISL:MHPA:1,2009-05-05T13:00:00Z,30.6671,-87.9365,4.22,6.99,1111122 
DISL,ioos:station:DISL:MHPA:1,2009-05-05T13:30:00Z,30.6671,-87.9365,4.242,7.05,1111122 
DISL,ioos:station:DISL:MHPA:1,2009-05-05T14:00:00Z,30.6671,-87.9365,4.2,7.32,1111122 
DISL,ioos:station:DISL:MHPA:1,2009-05-05T14:30:00Z,30.6671,-87.9365,4.235,7.4,1111122 
DISL,ioos:station:DISL:MHPA:1,2009-05-05T15:00:00Z,30.6671,-87.9365,4.223,7.23,1111122 
DISL,ioos:station:DISL:MHPA:1,2009-05-05T15:30:00Z,30.6671,-87.9365,4.196,7.65,1111122 
DISL,ioos:station:DISL:MHPA:1,2009-05-05T16:00:00Z,30.6671,-87.9365,4.23,7.45,1111122 
DISL,ioos:station:DISL:MHPA:1,2009-05-05T16:30:00Z,30.6671,-87.9365,4.172,7.41,1111122 
DISL,ioos:station:DISL:MHPA:1,2009-05-05T17:00:00Z,30.6671,-87.9365,4.243,8.71,1111122 
DISL,ioos:station:DISL:MHPA:1,2009-05-05T17:30:00Z,30.6671,-87.9365,4.223,8.79,1111122 
DISL,ioos:station:DISL:MHPA:1,2009-05-05T18:00:00Z,30.6671,-87.9365,4.224,8.89,1111122 
DISL,ioos:station:DISL:MHPA:1,2009-05-05T18:30:00Z,30.6671,-87.9365,4.257,9.03,1111122 
DISL,ioos:station:DISL:MHPA:1,2009-05-05T19:00:00Z,30.6671,-87.9365,4.257,9.05,1111122 
DISL,ioos:station:DISL:MHPA:1,2009-05-05T19:30:00Z,30.6671,-87.9365,4.203,9.06,1111122 
DISL,ioos:station:DISL:MHPA:1,2009-05-05T20:00:00Z,30.6671,-87.9365,4.128,9.11,1111122 
DISL,ioos:station:DISL:MHPA:1,2009-05-05T20:30:00Z,30.6671,-87.9365,4.0,8.96,1111122 
DISL,ioos:station:DISL:MHPA:1,2009-05-05T21:00:00Z,30.6671,-87.9365,3.871,8.7,1111122 
DISL,ioos:station:DISL:MHPA:1,2009-05-05T21:30:00Z,30.6671,-87.9365,3.829,8.85,1111122 
DISL,ioos:station:DISL:MHPA:1,2009-05-05T22:00:00Z,30.6671,-87.9365,3.813,8.98,1111122 
DISL,ioos:station:DISL:MHPA:1,2009-05-05T22:30:00Z,30.6671,-87.9365,3.728,8.82,1111122 
DISL,ioos:station:DISL:MHPA:1,2009-05-05T23:00:00Z,30.6671,-87.9365,3.677,8.92,1111122 
DISL,ioos:station:DISL:MHPA:1,2009-05-05T23:30:00Z,30.6671,-87.9365,3.64,8.71,1111122 
DISL,ioos:station:DISL:MHPA:1,2009-05-06T00:00:00Z,30.6671,-87.9365,3.571,8.71,1111122 
DISL,ioos:station:DISL:MHPA:1,2009-05-06T00:30:00Z,30.6671,-87.9365,3.55,8.64,1111122 
DISL,ioos:station:DISL:MHPA:1,2009-05-06T01:00:00Z,30.6671,-87.9365,3.528,8.45,1111122 
DISL,ioos:station:DISL:MHPA:1,2009-05-06T01:30:00Z,30.6671,-87.9365,3.484,8.41,1111122 
DISL,ioos:station:DISL:MHPA:1,2009-05-06T02:00:00Z,30.6671,-87.9365,3.496,8.23,1111122 
DISL,ioos:station:DISL:MHPA:1,2009-05-06T02:30:00Z,30.6671,-87.9365,3.501,8.18,1111122 
DISL,ioos:station:DISL:MHPA:1,2009-05-06T03:00:00Z,30.6671,-87.9365,3.499,7.77,1111122 
DISL,ioos:station:DISL:MHPA:1,2009-05-06T03:30:00Z,30.6671,-87.9365,3.521,8.15,1111122 
DISL,ioos:station:DISL:MHPA:1,2009-05-06T04:00:00Z,30.6671,-87.9365,3.552,7.97,1111122 
DISL,ioos:station:DISL:MHPA:1,2009-05-06T04:30:00Z,30.6671,-87.9365,3.586,7.86,1111122 
DISL,ioos:station:DISL:MHPA:1,2009-05-06T05:00:00Z,30.6671,-87.9365,3.729,7.86,1111122 
DISL,ioos:station:DISL:MHPA:1,2009-05-06T05:30:00Z,30.6671,-87.9365,3.849,7.94,1111122 
DISL,ioos:station:DISL:MHPA:1,2009-05-06T06:00:00Z,30.6671,-87.9365,3.906,7.79,1111122 
DISL,ioos:station:DISL:MHPA:1,2009-05-06T06:30:00Z,30.6671,-87.9365,4.011,7.83,1111122 
DISL,ioos:station:DISL:MHPA:1,2009-05-06T07:00:00Z,30.6671,-87.9365,4.144,7.81,1111122 
DISL,ioos:station:DISL:MHPA:1,2009-05-06T07:30:00Z,30.6671,-87.9365,4.22,7.71,1111122 
DISL,ioos:station:DISL:MHPA:1,2009-05-06T08:00:00Z,30.6671,-87.9365,4.313,7.57,1111122 
DISL,ioos:station:DISL:MHPA:1,2009-05-06T08:30:00Z,30.6671,-87.9365,4.415,7.78,1111122 
DISL,ioos:station:DISL:MHPA:1,2009-05-06T09:00:00Z,30.6671,-87.9365,4.511,7.75,1111122 
DISL,ioos:station:DISL:MHPA:1,2009-05-06T09:30:00Z,30.6671,-87.9365,4.604,7.73,1111122 
DISL,ioos:station:DISL:MHPA:1,2009-05-06T10:00:00Z,30.6671,-87.9365,4.658,7.63,1111122 
DISL,ioos:station:DISL:MHPA:1,2009-05-06T10:30:00Z,30.6671,-87.9365,4.742,7.61,1111122 
DISL,ioos:station:DISL:MHPA:1,2009-05-06T11:00:00Z,30.6671,-87.9365,4.828,7.64,1111122 
DISL,ioos:station:DISL:MHPA:1,2009-05-06T11:30:00Z,30.6671,-87.9365,4.888,7.61,1111122 
DISL,ioos:station:DISL:MHPA:1,2009-05-06T12:00:00Z,30.6671,-87.9365,4.914,7.55,1111122 
DISL,ioos:station:DISL:MHPA:1,2009-05-06T12:30:00Z,30.6671,-87.9365,4.875,7.55,1111122 
DISL,ioos:station:DISL:MHPA:1,2009-05-06T13:00:00Z,30.6671,-87.9365,4.894,7.49,1111122 
DISL,ioos:station:DISL:MHPA:1,2009-05-06T13:30:00Z,30.6671,-87.9365,4.878,7.48,1111122 
DISL,ioos:station:DISL:MHPA:1,2009-05-06T14:00:00Z,30.6671,-87.9365,4.909,7.5,1111122 
DISL,ioos:station:DISL:MHPA:1,2009-05-06T14:30:00Z,30.6671,-87.9365,4.895,7.56,1111122 
DISL,ioos:station:DISL:MHPA:1,2009-05-06T15:00:00Z,30.6671,-87.9365,4.863,7.64,1111122 
DISL,ioos:station:DISL:MHPA:1,2009-05-06T15:30:00Z,30.6671,-87.9365,4.826,8.07,1111122 